Location: Bois de la Silve
(44.4667°N, 6.7833°E)
Time: 00:19:55
(UTC+00:00)

USA 238 DEB - Pass Details

Date: 01 November 2020
Orbit: 1001 x 1211 km, 63.5° (Epoch: 22 November)

Event Time Altitude Azimuth Distance (km) Brightness Sun altitude
Exits shadow 03:23:20 28° 344° (NNW) 1,871 4.8 -30.2°
Drops below altitude 10° 03:28:15 10° 27° (NNE) 2,956 6.4 -29.4°
Sets 03:31:25 0° 38° (NE) 3,952 7.3 -28.8°
